When you browse on this site, cookies collect data to enhance your experience and personalize the content and advertising you see.
Visit our Privacy Policy to learn more. By continuing to use the site, you agree to this use of cookies and data.
  • In France
  • List of Countries
  • For 7 days
  • Water Temperature
  • Satellite Maps
  • Weather Map
  • Weather Widgets
  • user-avatar
    Login

    Hourly Weather Haskovo

    Today, 23 March, Saturday

    Time Temperature Precipitation Wind Pressure Humidity
    00:00 +9°C° 0 mm 1 mps 748 mmHg 68%
    01:00 +8°C° 0 mm 0 mps 748 mmHg 70%
    02:00 +7°C° 0 mm 0 mps 747 mmHg 71%
    03:00 +8°C° 0 mm 1 mps 747 mmHg 71%
    04:00 +8°C° 0 mm 1 mps 747 mmHg 72%
    05:00 +8°C° 0 mm 1 mps 747 mmHg 72%
    06:00 +9°C° 0 mm 1 mps 747 mmHg 70%
    07:00 +9°C° 0 mm 1 mps 747 mmHg 67%
    08:00 +10°C° 0 mm 2 mps 747 mmHg 62%
    09:00 +12°C° 0 mm 2 mps 747 mmHg 58%
    10:00 +14°C° 0 mm 2 mps 747 mmHg 53%
    11:00 +14°C° 0 mm 3 mps 746 mmHg 48%
    12:00 +16°C° 0 mm 2 mps 746 mmHg 46%
    13:00 +17°C° 0 mm 2 mps 746 mmHg 45%
    14:00 +18°C° 0 mm 2 mps 745 mmHg 41%
    15:00 +18°C° 0 mm 3 mps 745 mmHg 44%
    16:00 +17°C° 0 mm 3 mps 745 mmHg 48%
    17:00 +17°C° 0 mm 3 mps 745 mmHg 51%
    18:00 +14°C° 0 mm 4 mps 745 mmHg 54%
    19:00 +12°C° 0 mm 4 mps 745 mmHg 57%
    20:00 +11°C° 0 mm 4 mps 746 mmHg 61%
    21:00 +10°C° 0 mm 4 mps 746 mmHg 59%
    22:00 +10°C° 0 mm 3 mps 746 mmHg 57%
    23:00 +9°C° 0 mm 2 mps 747 mmHg 56%

    Tomorrow, 24 March, Sunday

    Time Temperature Precipitation Wind Pressure Humidity
    00:00 +9°C° 0 mm 2 mps 747 mmHg 57%
    01:00 +10°C° 0 mm 1 mps 747 mmHg 58%
    02:00 +8°C° 0 mm 0 mps 747 mmHg 59%
    03:00 +9°C° 0 mm 1 mps 747 mmHg 59%
    04:00 +9°C° 0 mm 1 mps 747 mmHg 58%
    05:00 +8°C° 0 mm 1 mps 746 mmHg 57%
    06:00 +8°C° 0 mm 2 mps 746 mmHg 56%
    07:00 +8°C° 0 mm 2 mps 746 mmHg 54%
    08:00 +8°C° 0 mm 2 mps 746 mmHg 52%
    09:00 +10°C° 0 mm 2 mps 746 mmHg 48%
    10:00 +11°C° 0 mm 3 mps 746 mmHg 44%
    11:00 +13°C° 0 mm 3 mps 746 mmHg 40%
    12:00 +14°C° 0 mm 3 mps 746 mmHg 37%
    13:00 +14°C° 0 mm 3 mps 745 mmHg 34%
    14:00 +16°C° 0 mm 3 mps 745 mmHg 31%
    15:00 +16°C° 0 mm 3 mps 745 mmHg 32%
    16:00 +16°C° 0 mm 2 mps 744 mmHg 32%
    17:00 +16°C° 0 mm 2 mps 744 mmHg 32%
    18:00 +14°C° 0 mm 2 mps 744 mmHg 36%
    19:00 +12°C° 0 mm 2 mps 744 mmHg 40%
    20:00 +10°C° 0 mm 1 mps 744 mmHg 44%
    21:00 +10°C° 0 mm 1 mps 744 mmHg 45%
    22:00 +9°C° 0 mm 1 mps 744 mmHg 46%
    23:00 +9°C° 0 mm 1 mps 744 mmHg 47%

    Day after tomorrow, 25 March, Monday

    Time Temperature Precipitation Wind Pressure Humidity
    00:00 +8°C° 0 mm 1 mps 744 mmHg 49%
    01:00 +8°C° 0 mm 1 mps 744 mmHg 51%
    02:00 +7°C° 0 mm 1 mps 744 mmHg 52%
    03:00 +7°C° 0 mm 1 mps 743 mmHg 54%
    04:00 +6°C° 0 mm 1 mps 743 mmHg 55%
    05:00 +6°C° 0 mm 1 mps 742 mmHg 57%
    06:00 +7°C° 0 mm 1 mps 742 mmHg 55%
    07:00 +8°C° 0 mm 1 mps 742 mmHg 52%
    08:00 +9°C° 0 mm 1 mps 742 mmHg 50%
    09:00 +11°C° 0 mm 1 mps 742 mmHg 45%
    10:00 +14°C° 0 mm 1 mps 741 mmHg 40%
    11:00 +16°C° 0 mm 1 mps 741 mmHg 35%
    12:00 +17°C° 0 mm 2 mps 740 mmHg 33%
    13:00 +18°C° 0 mm 2 mps 740 mmHg 30%
    14:00 +19°C° 0 mm 2 mps 739 mmHg 28%
    15:00 +19°C° 0 mm 2 mps 739 mmHg 31%
    16:00 +19°C° 0 mm 3 mps 738 mmHg 33%
    17:00 +19°C° 0 mm 3 mps 738 mmHg 36%
    18:00 +16°C° 0 mm 3 mps 738 mmHg 44%
    19:00 +13°C° 0 mm 3 mps 738 mmHg 51%
    20:00 +11°C° 0 mm 3 mps 738 mmHg 59%
    21:00 +10°C° 0 mm 3 mps 738 mmHg 62%
    22:00 +10°C° 0 mm 2 mps 738 mmHg 65%
    23:00 +9°C° 0 mm 2 mps 738 mmHg 68%

    26 March, Tuesday

    Time Temperature Precipitation Wind Pressure Humidity
    00:00 +10°C° 0 mm 1 mps 738 mmHg 69%
    01:00 +9°C° 0 mm 1 mps 737 mmHg 70%
    02:00 +9°C° 0 mm 1 mps 737 mmHg 71%
    03:00 +8°C° 0 mm 1 mps 737 mmHg 72%
    04:00 +7°C° 0 mm 0 mps 737 mmHg 73%
    05:00 +7°C° 0 mm 0 mps 737 mmHg 74%
    06:00 +8°C° 0 mm 0 mps 737 mmHg 71%
    07:00 +9°C° 0 mm 0 mps 738 mmHg 68%
    08:00 +10°C° 0 mm 0 mps 738 mmHg 64%
    09:00 +12°C° 0 mm 1 mps 738 mmHg 59%
    10:00 +14°C° 0 mm 1 mps 739 mmHg 54%
    11:00 +16°C° 0 mm 2 mps 739 mmHg 50%
    12:00 +17°C° 0 mm 2 mps 739 mmHg 47%
    13:00 +18°C° 0 mm 2 mps 739 mmHg 44%
    14:00 +19°C° 0 mm 3 mps 739 mmHg 41%
    15:00 +18°C° 0.1 mm 3 mps 739 mmHg 47%
    16:00 +15°C° 0.1 mm 4 mps 740 mmHg 54%
    17:00 +14°C° 0.1 mm 5 mps 740 mmHg 60%
    18:00 +13°C° 0.1 mm 4 mps 740 mmHg 63%
    19:00 +12°C° 0.1 mm 4 mps 741 mmHg 66%
    20:00 +11°C° 0.1 mm 4 mps 742 mmHg 69%
    21:00 +10°C° 0.2 mm 3 mps 742 mmHg 73%
    22:00 +10°C° 0.2 mm 3 mps 743 mmHg 76%
    23:00 +9°C° 0.2 mm 3 mps 743 mmHg 80%

    27 March, Wednesday

    Time Temperature Precipitation Wind Pressure Humidity
    00:00 +9°C° 0.7 mm 3 mps 744 mmHg 82%
    01:00 +9°C° 0.7 mm 3 mps 744 mmHg 84%
    02:00 +8°C° 0.7 mm 3 mps 744 mmHg 86%
    03:00 +8°C° 0.3 mm 3 mps 745 mmHg 85%
    04:00 +6°C° 0.3 mm 4 mps 745 mmHg 84%
    05:00 +6°C° 0.3 mm 4 mps 745 mmHg 83%
    06:00 +7°C° 0.1 mm 3 mps 745 mmHg 80%
    07:00 +7°C° 0.1 mm 3 mps 746 mmHg 77%
    08:00 +7°C° 0.1 mm 3 mps 746 mmHg 73%
    09:00 +8°C° 0 mm 3 mps 747 mmHg 71%
    10:00 +8°C° 0 mm 3 mps 747 mmHg 68%
    11:00 +9°C° 0 mm 3 mps 747 mmHg 65%
    12:00 +9°C° 0 mm 3 mps 747 mmHg 61%
    13:00 +10°C° 0 mm 3 mps 747 mmHg 57%
    14:00 +11°C° 0 mm 3 mps 747 mmHg 53%
    15:00 +11°C° 0 mm 3 mps 747 mmHg 52%
    16:00 +11°C° 0 mm 3 mps 747 mmHg 51%
    17:00 +11°C° 0 mm 3 mps 747 mmHg 51%
    18:00 +10°C° 0 mm 2 mps 747 mmHg 54%
    19:00 +8°C° 0 mm 2 mps 748 mmHg 58%
    20:00 +7°C° 0 mm 2 mps 748 mmHg 62%
    21:00 +6°C° 0 mm 2 mps 748 mmHg 62%
    22:00 +5°C° 0 mm 2 mps 748 mmHg 62%
    23:00 +6°C° 0 mm 1 mps 749 mmHg 62%

    28 March, Thursday

    Time Temperature Precipitation Wind Pressure Humidity
    00:00 +5°C° 0 mm 1 mps 749 mmHg 63%
    01:00 +5°C° 0 mm 1 mps 749 mmHg 64%
    02:00 +4°C° 0 mm 1 mps 749 mmHg 64%
    03:00 +4°C° 0 mm 1 mps 749 mmHg 65%
    04:00 +4°C° 0 mm 1 mps 749 mmHg 66%
    05:00 +3°C° 0 mm 1 mps 749 mmHg 67%
    06:00 +4°C° 0 mm 1 mps 749 mmHg 64%
    07:00 +5°C° 0 mm 1 mps 749 mmHg 60%
    08:00 +6°C° 0 mm 1 mps 750 mmHg 57%
    09:00 +7°C° 0 mm 2 mps 750 mmHg 53%
    10:00 +8°C° 0 mm 3 mps 750 mmHg 48%
    11:00 +10°C° 0 mm 4 mps 750 mmHg 43%
    12:00 +11°C° 0 mm 4 mps 749 mmHg 42%
    13:00 +10°C° 0 mm 5 mps 749 mmHg 42%
    14:00 +12°C° 0 mm 5 mps 749 mmHg 41%
    15:00 +10°C° 0 mm 5 mps 749 mmHg 41%
    16:00 +10°C° 0 mm 6 mps 748 mmHg 41%
    17:00 +9°C° 0 mm 6 mps 748 mmHg 42%
    18:00 +8°C° 0 mm 5 mps 749 mmHg 48%
    19:00 +6°C° 0 mm 4 mps 749 mmHg 54%
    20:00 +4°C° 0 mm 3 mps 749 mmHg 61%
    21:00 +3°C° 0 mm 3 mps 750 mmHg 64%
    22:00 +3°C° 0 mm 2 mps 750 mmHg 67%
    23:00 +3°C° 0 mm 1 mps 750 mmHg 70%
    Show more